Hutchinson, MN

7:27 PM CDT on March 28, 2017 (GMT -0500)
Hutchinson Municipal-Butler

Weather History for KHCD - January, 2014

Change the Weather History Date:

Wednesday, January 8, 2014

  Actual Average Record
Temperature  
Mean Temperature -6 °F -  
Max Temperature 0 °F 18 °F 53 °F (2003)
Min Temperature -13 °F -2 °F -22 °F (1966)
Degree Days  
Heating Degree Days 72    
Moisture  
Dew Point -12 °F    
Average Humidity 76    
Maximum Humidity 84    
Minimum Humidity 65    
Precipitation  
Precipitation 0.00 in - - ()
Sea Level Pressure  
Sea Level Pressure 30.38 in    
Wind  
Wind Speed 4 mph (WNW)    
Max Wind Speed 8 mph    
Max Gust Speed -    
Visibility 10 miles    
Events      
Averages and records for this station are not official NWS values.
T = Trace of Precipitation, MM = Missing Value Source: NWS Daily Summary

Daily Weather History Graph

Daily Weather History Graph

Search for Another Location

Airport or City:

Trip Planner

Search our weather history database for the weather conditions in past years. The results will help you decide how hot, cold, wet, or windy it might be!

Date:

Astronomy

Jan. 08, 2014 Rise Set
Actual Time 7:54 AM CST 4:54 PM CST
Civil Twilight 7:21 AM CST 5:27 PM CST
Nautical Twilight 6:44 AM CST 6:04 PM CST
Astronomical Twilight 6:09 AM CST 6:39 PM CST
Moon 11:55 AM CST (1/8) 12:51 AM CST (1/8)
Length of Visible Light 10h 06m
Length of Day
8h 59m
First Quarter, 56% of the Moon is Illuminated
Jan 8
First Quarter
Jan 15
Full
Jan 23
Last Quarter
Jan 30
New
Feb 6
First Quarter

Hourly Weather History & Observations

Time (CST) Temp. Windchill Dew Point Humidity Pressure Visibility Wind Dir Wind Speed Gust Speed Precip Events Conditions
12:13 AM -4.5 °F -18.4 °F -10.1 °F 77% 30.24 in 10.0 mi West 6.9 mph - N/A   Clear
12:33 AM -6.0 °F -20.1 °F -11.2 °F 78% 30.26 in 10.0 mi West 6.9 mph - N/A   Clear
12:53 AM -5.1 °F -19.1 °F -10.5 °F 78% 30.26 in 10.0 mi West 6.9 mph - N/A   Clear
1:13 AM -4.9 °F -18.8 °F -10.7 °F 76% 30.27 in 10.0 mi West 6.9 mph - N/A   Scattered Clouds
1:33 AM -4.9 °F -17.4 °F -10.8 °F 76% 30.27 in 10.0 mi WNW 5.8 mph - N/A   Mostly Cloudy
1:53 AM -5.4 °F -16.2 °F -11.4 °F 76% 30.28 in 10.0 mi West 4.6 mph - N/A   Overcast
2:13 AM -6.0 °F -18.6 °F -11.4 °F 77% 30.29 in 10.0 mi West 5.8 mph - N/A   Scattered Clouds
2:33 AM -6.7 °F -17.7 °F -12.1 °F 77% 30.30 in 10.0 mi WNW 4.6 mph - N/A   Scattered Clouds
2:53 AM -6.7 °F -19.5 °F -12.3 °F 77% 30.30 in 10.0 mi WNW 5.8 mph - N/A   Clear
3:13 AM -7.6 °F -18.8 °F -13.0 °F 77% 30.31 in 10.0 mi WNW 4.6 mph - N/A   Clear
3:33 AM -8.0 °F -21.0 °F -13.5 °F 77% 30.31 in 10.0 mi WNW 5.8 mph - N/A   Clear
3:53 AM -8.1 °F -24.1 °F -13.9 °F 76% 30.31 in 10.0 mi WNW 8.1 mph - N/A   Clear
4:13 AM -8.5 °F -21.6 °F -14.1 °F 77% 30.31 in 10.0 mi NW 5.8 mph - N/A   Clear
4:34 AM -9.8 °F -24.7 °F -14.8 °F 78% 30.31 in 10.0 mi NW 6.9 mph - N/A   Clear
4:53 AM -9.4 °F -22.7 °F -14.8 °F 77% 30.31 in 10.0 mi WNW 5.8 mph - N/A   Clear
5:13 AM -9.8 °F -21.3 °F -15.0 °F 78% 30.32 in 10.0 mi WNW 4.6 mph - N/A   Clear
5:34 AM -10.1 °F -19.4 °F -15.5 °F 77% 30.32 in 10.0 mi WNW 3.5 mph - N/A   Clear
5:53 AM -10.3 °F -19.6 °F -15.7 °F 77% 30.33 in 10.0 mi WNW 3.5 mph - N/A   Clear
6:13 AM -10.3 °F -19.6 °F -15.3 °F 78% 30.33 in 10.0 mi WNW 3.5 mph - N/A   Clear
6:33 AM -11.6 °F - -16.8 °F 78% 30.34 in 10.0 mi Calm Calm - N/A   Clear
6:53 AM -11.7 °F -21.3 °F -16.4 °F 80% 30.35 in 10.0 mi WNW 3.5 mph - N/A   Clear
7:13 AM -11.2 °F -20.6 °F -15.9 °F 80% 30.35 in 10.0 mi WNW 3.5 mph - N/A   Clear
7:33 AM -13.7 °F -27.8 °F -18.4 °F 80% 30.36 in 10.0 mi NW 5.8 mph - N/A   Clear
7:54 AM -13.5 °F -27.6 °F -17.9 °F 81% 30.37 in 10.0 mi NW 5.8 mph - N/A   Clear
8:13 AM -12.1 °F -25.9 °F -17.1 °F 78% 30.38 in 10.0 mi NW 5.8 mph - N/A   Clear
8:33 AM -12.5 °F -22.1 °F -17.5 °F 78% 30.39 in 10.0 mi WNW 3.5 mph - N/A   Clear
8:53 AM -12.3 °F -21.9 °F -17.3 °F 78% 30.41 in 10.0 mi NW 3.5 mph - N/A   Clear
9:13 AM -10.7 °F -20.0 °F -16.1 °F 77% 30.42 in 10.0 mi WNW 3.5 mph - N/A   Clear
9:33 AM -9.6 °F - -15.5 °F 75% 30.43 in 10.0 mi Calm Calm - N/A   Clear
9:53 AM -8.5 °F -17.6 °F -14.8 °F 74% 30.43 in 10.0 mi NW 3.5 mph - N/A   Clear
10:13 AM -7.6 °F -18.8 °F -14.3 °F 73% 30.44 in 10.0 mi NW 4.6 mph - N/A   Clear
10:33 AM -6.5 °F -19.3 °F -13.2 °F 73% 30.43 in 10.0 mi NW 5.8 mph - N/A   Clear
10:53 AM -5.8 °F -16.7 °F -13.0 °F 71% 30.44 in 10.0 mi WNW 4.6 mph - N/A   Clear
11:13 AM -5.1 °F -15.8 °F -12.3 °F 71% 30.44 in 10.0 mi WNW 4.6 mph - N/A   Clear
11:32 AM -4.0 °F -12.4 °F -11.4 °F 71% 30.44 in 10.0 mi NW 3.5 mph - N/A   Clear
11:53 AM -3.1 °F -11.4 °F -10.5 °F 71% 30.44 in 10.0 mi West 3.5 mph - N/A   Clear
12:14 PM -2.4 °F - -9.6 °F 71% 30.43 in 10.0 mi Calm Calm - N/A   Clear
12:33 PM -1.5 °F - -9.4 °F 69% 30.43 in 10.0 mi Calm Calm - N/A   Clear
12:53 PM -0.8 °F -8.7 °F -8.7 °F 69% 30.42 in 10.0 mi West 3.5 mph - N/A   Clear
1:13 PM -0.6 °F - -8.5 °F 69% 30.42 in 10.0 mi Calm Calm - N/A   Clear
1:33 PM -0.4 °F -8.3 °F -8.9 °F 67% 30.42 in 10.0 mi West 3.5 mph - N/A   Clear
1:53 PM -0.4 °F - -8.5 °F 69% 30.42 in 10.0 mi Calm Calm - N/A   Clear
2:13 PM 0.5 °F -9.3 °F -7.6 °F 69% 30.42 in 10.0 mi WSW 4.6 mph - N/A   Clear
2:33 PM 0.5 °F -11.0 °F -8.5 °F 66% 30.43 in 10.0 mi WNW 5.8 mph - N/A   Clear
2:54 PM 0.5 °F -9.3 °F -8.7 °F 65% 30.43 in 10.0 mi West 4.6 mph - N/A   Clear
3:13 PM 0.9 °F -6.9 °F -7.8 °F 67% 30.43 in 10.0 mi NW 3.5 mph - N/A   Clear
3:33 PM 0.5 °F -9.3 °F -7.6 °F 69% 30.43 in - West 4.6 mph - N/A   Clear
3:53 PM 0.3 °F -9.5 °F -7.6 °F 69% 30.44 in 10.0 mi West 4.6 mph - N/A   Clear
4:13 PM 0.1 °F -7.7 °F -7.6 °F 70% 30.44 in 10.0 mi West 3.5 mph - N/A   Clear
4:34 PM -0.6 °F - -8.5 °F 69% 30.43 in 10.0 mi Calm Calm - N/A   Clear
4:54 PM -1.5 °F - -8.0 °F 74% 30.43 in 10.0 mi Calm Calm - N/A   Clear
5:13 PM -2.2 °F - -8.1 °F 76% 30.44 in 10.0 mi Calm Calm - N/A   Clear
5:33 PM -3.6 °F - -8.9 °F 78% 30.44 in 10.0 mi Calm Calm - N/A   Clear
5:54 PM -3.5 °F - -8.9 °F 78% 30.43 in 10.0 mi Calm Calm - N/A   Clear
6:13 PM -5.1 °F - -9.4 °F 82% 30.43 in 10.0 mi Calm Calm - N/A   Clear
6:33 PM -6.5 °F - -10.8 °F 82% 30.43 in 10.0 mi Calm Calm - N/A   Clear
6:53 PM -7.4 °F - -11.9 °F 81% 30.42 in 10.0 mi Calm Calm - N/A   Clear
7:13 PM -6.7 °F -15.5 °F -11.0 °F 81% 30.42 in 10.0 mi East 3.5 mph - N/A   Clear
7:33 PM -8.1 °F -17.1 °F -12.3 °F 82% 30.42 in 10.0 mi ESE 3.5 mph - N/A   Clear
7:53 PM -8.7 °F -17.8 °F -12.6 °F 83% 30.42 in 10.0 mi SE 3.5 mph - N/A   Clear
8:14 PM -11.0 °F - -15.2 °F 82% 30.43 in 10.0 mi Calm Calm - N/A   Clear
8:33 PM -10.3 °F - -14.6 °F 81% 30.42 in 10.0 mi Calm Calm - N/A   Clear
8:54 PM -9.2 °F - -12.8 °F 84% 30.41 in 10.0 mi Calm Calm - N/A   Clear
9:13 PM -10.7 °F - -14.8 °F 82% 30.42 in 10.0 mi Calm Calm - N/A   Clear
9:34 PM -10.3 °F -19.6 °F -14.1 °F 83% 30.41 in 10.0 mi ESE 3.5 mph - N/A   Clear
9:53 PM -9.6 °F -25.8 °F -13.5 °F 83% 30.40 in 10.0 mi SE 8.1 mph - N/A   Clear
10:13 PM -9.6 °F -18.8 °F -13.5 °F 83% 30.40 in 10.0 mi SSE 3.5 mph - N/A   Clear
10:34 PM -9.9 °F -19.2 °F -13.7 °F 83% 30.41 in 10.0 mi South 3.5 mph - N/A   Scattered Clouds
10:53 PM -8.9 °F - -13.0 °F 82% 30.39 in 10.0 mi Calm Calm - N/A   Mostly Cloudy
11:14 PM -6.2 °F -21.7 °F -10.3 °F 82% 30.38 in 10.0 mi ESE 8.1 mph - N/A   Mostly Cloudy
11:34 PM -4.9 °F -17.4 °F -8.9 °F 83% 30.37 in 10.0 mi SE 5.8 mph - N/A   Overcast
11:53 PM -3.5 °F -11.8 °F -7.8 °F 82% 30.37 in 10.0 mi SSE 3.5 mph - N/A   Overcast